This demonstration page uses our WeatherBlox Daily Observations layout. Learn more.

Left ArrowRight Arrow

39.51506, -84.39828

Hourly Observations for January 14, 2021

Temp ( °F °C ) Dew Point ( °F °C ) Humidity (%) Winds ( mph kmh ) Pressure ( in mb ) Visibility ( mi km ) Precip ( " mm )
12:15 am 00:15 Cloudy 39 4 29 -1.7 67 67 SSW 9 15 29.86 1011 10 16.0934 N/A
12:35 am 00:35 Clear 39 3.7 29 -1.8 68 68 SSW 9 15 29.86 1011 10 16.0934 N/A
12:55 am 00:55 Clear 38 3.4 29 -1.9 69 69 S 7 11 29.86 1011 10 16.0934 N/A
1:15 am 01:15 Clear 36 2.2 28 -2.1 74 74 SSW 6 9 29.86 1011 10 16.0934 N/A
1:35 am 01:35 Clear 36 2.2 28 -2.3 72 72 SSW 5 7 29.85 1011 10 16.0934 N/A
1:55 am 01:55 Clear 35 1.4 28 -2.2 77 77 SSW 6 9 29.85 1011 10 16.0934 N/A
2:15 am 02:15 Clear 35 1.5 28 -2.1 77 77 S 6 9 29.85 1011 10 16.0934 N/A
2:35 am 02:35 Clear 33 0.3 28 -2.2 84 84 S 6 9 29.85 1011 10 16.0934 N/A
2:55 am 02:55 Clear 33 0.7 28 -2 82 82 S 8 13 29.84 1011 10 16.0934 N/A
3:15 am 03:15 Clear 36 2.1 29 -1.7 76 76 S 8 13 29.84 1010 10 16.0934 N/A
3:35 am 03:35 Clear 35 1.9 29 -1.7 77 77 S 8 13 29.84 1010 10 16.0934 N/A
3:55 am 03:55 Clear 35 1.4 29 -1.8 80 80 SSW 5 7 29.83 1010 10 16.0934 N/A
4:15 am 04:15 Clear 35 1.4 29 -1.9 79 79 S 6 9 29.83 1010 10 16.0934 N/A
4:35 am 04:35 Clear 35 1.6 29 -1.9 78 78 S 7 11 29.82 1010 10 16.0934 N/A
4:55 am 04:55 Partly Cloudy 35 1.8 29 -1.8 77 77 S 6 9 29.82 1010 10 16.0934 N/A
5:15 am 05:15 Clear 35 1.5 29 -1.8 79 79 S 7 11 29.82 1010 10 16.0934 N/A
5:35 am 05:35 Clear 35 1.7 29 -1.8 78 78 S 10 17 29.83 1010 10 16.0934 N/A
5:55 am 05:55 Clear 35 1.4 29 -1.9 79 79 S 8 13 29.83 1010 10 16.0934 N/A
6:15 am 06:15 Clear 33 0.8 28 -2 82 82 S 7 11 29.83 1010 10 16.0934 N/A
6:35 am 06:35 Clear 33 0.3 28 -2.1 84 84 S 6 9 29.83 1010 10 16.0934 N/A
6:55 am 06:55 Clear 33 0.6 28 -2 83 83 S 6 9 29.83 1010 10 16.0934 N/A
7:15 am 07:15 Clear 33 0.8 29 -1.9 82 82 S 9 15 29.82 1010 10 16.0934 N/A
7:35 am 07:35 Clear 33 0.5 29 -1.9 84 84 S 7 11 29.82 1010 10 16.0934 N/A
7:55 am 07:55 Clear 32 undefined 28 -2 87 87 SSW 7 11 29.83 1010 10 16.0934 N/A
8:15 am 08:15 Sunny 32 0.1 28 -2 86 86 S 5 7 29.83 1010 10 16.0934 N/A
8:35 am 08:35 Sunny 32 0.1 29 -1.9 87 87 S 7 11 29.83 1010 10 16.0934 N/A
8:55 am 08:55 Sunny 33 0.8 29 -1.4 85 85 S 9 15 29.84 1011 10 16.0934 N/A
9:15 am 09:15 Sunny 35 1.4 30 -1.2 83 83 S 7 11 29.83 1010 10 16.0934 N/A
9:35 am 09:35 Sunny 36 2 30 -0.9 81 81 S 10 17 29.83 1010 10 16.0934 N/A
9:55 am 09:55 Sunny 36 2.4 30 -0.9 79 79 S 13 20 29.83 1010 10 16.0934 N/A
10:15 am 10:15 Sunny 37 2.6 31 -0.6 80 80 S 14 22 29.83 1010 10 16.0934 N/A
10:35 am 10:35 Sunny 38 3.3 31 -0.5 76 76 S 12 19 29.82 1010 10 16.0934 N/A
10:55 am 10:55 Sunny 39 3.7 32 -0.2 76 76 S 12 19 29.83 1010 10 16.0934 N/A
11:15 am 11:15 Sunny 40 4.4 32 undefined 73 73 S 13 20 29.8 1009 10 16.0934 N/A
11:35 am 11:35 Sunny 41 5.1 33 0.3 71 71 SSW 12 19 29.79 1009 10 16.0934 N/A
11:55 am 11:55 Sunny 42 5.5 33 0.3 69 69 SSE 10 17 29.77 1008 10 16.0934 N/A
12:15 pm 12:15 Sunny 42 5.6 33 0.6 71 71 S 8 13 29.75 1007 10 16.0934 N/A
12:35 pm 12:35 Sunny 43 6.2 33 0.4 67 67 SSW 9 15 29.74 1007 10 16.0934 N/A
1:55 pm 13:55 Sunny 45 7.4 33 0.8 63 63 SSE 9 15 29.69 1005 10 16.0934 N/A
2:15 pm 14:15 Sunny 46 7.5 34 0.9 63 63 SSE 12 19 29.69 1005 10 16.0934 N/A
2:35 pm 14:35 Sunny 46 7.5 33 0.8 63 63 S 12 19 29.69 1005 10 16.0934 N/A
2:55 pm 14:55 Sunny 46 7.7 33 0.7 62 62 SSE 14 22 29.67 1005 10 16.0934 N/A
3:15 pm 15:15 Sunny 46 7.6 33 0.8 62 62 SSE 12 19 29.67 1005 10 16.0934 N/A
3:35 pm 15:35 Sunny 46 7.8 33 0.7 61 61 SSE 14 22 29.66 1005 10 16.0934 N/A
3:55 pm 15:55 Mostly Cloudy 46 7.9 33 0.7 61 61 SSE 10 17 29.66 1005 10 16.0934 N/A
4:15 pm 16:15 Cloudy 46 7.9 34 0.9 62 62 SSE 9 15 29.65 1004 10 16.0934 N/A
4:35 pm 16:35 Partly Cloudy 46 7.9 34 1.1 62 62 SE 7 11 29.65 1004 10 16.0934 N/A
4:55 pm 16:55 Sunny 46 8 34 1 62 62 SE 8 13 29.65 1004 10 16.0934 N/A
5:15 pm 17:15 Sunny 46 7.8 34 1.1 63 63 SSE 6 9 29.67 1005 10 16.0934 N/A
5:35 pm 17:35 Cloudy 46 7.6 34 1.2 64 64 SE 6 9 29.66 1005 10 16.0934 N/A
5:55 pm 17:55 Cloudy 46 7.5 34 1.3 65 65 SE 7 11 29.65 1004 10 16.0934 N/A
6:15 pm 18:15 Cloudy 46 7.5 35 1.4 66 66 ESE 7 11 29.65 1004 10 16.0934 N/A
6:35 pm 18:35 Mostly Cloudy 46 7.5 35 1.4 66 66 SE 5 7 29.65 1004 10 16.0934 N/A
6:55 pm 18:55 Partly Cloudy 44 6.9 34 1.3 68 68 ESE 3 6 29.64 1004 10 16.0934 N/A
7:15 pm 19:15 Cloudy 44 6.8 35 1.4 69 69 N N/A 29.65 1004 10 16.0934 N/A
7:35 pm 19:35 Cloudy 44 6.9 35 1.4 68 68 N N/A 29.65 1004 10 16.0934 N/A
7:55 pm 19:55 Cloudy 43 5.9 35 1.5 74 74 N N/A 29.66 1004 10 16.0934 N/A
8:15 pm 20:15 Cloudy 41 5.1 35 1.6 78 78 N N/A 29.65 1004 10 16.0934 N/A
8:35 pm 20:35 Clear 41 5.1 35 1.4 77 77 N N/A 29.64 1004 10 16.0934 N/A
8:55 pm 20:55 Clear 43 6.1 35 1.5 73 73 N N/A 29.64 1004 10 16.0934 N/A
9:15 pm 21:15 Clear 40 4.5 34 1.2 79 79 N N/A 29.64 1004 10 16.0934 N/A
9:35 pm 21:35 Cloudy 37 2.8 34 1.1 89 89 N N/A 29.65 1004 10 16.0934 N/A
9:55 pm 21:55 Cloudy 38 3.3 34 1.3 87 87 N N/A 29.64 1004 10 16.0934 N/A
10:15 pm 22:15 Cloudy 39 3.8 35 1.6 86 86 N N/A 29.63 1004 10 16.0934 N/A
10:35 pm 22:35 Cloudy 44 6.9 34 1.1 67 67 S 8 13 29.62 1003 10 16.0934 N/A
10:55 pm 22:55 Cloudy 47 8.2 33 0.5 59 59 S 8 13 29.61 1003 10 16.0934 N/A
11:15 pm 23:15 Cloudy 47 8.5 33 0.4 57 57 S 12 19 29.6 1002 10 16.0934 N/A
11:35 pm 23:35 Cloudy 47 8.3 33 0.4 58 58 S 9 15 29.61 1003 10 16.0934 N/A
11:55 pm 23:55 Cloudy 47 8.1 33 0.5 59 59 S 9 15 29.6 1002 10 16.0934 N/A

Powered by AerisWeather